SL-16 DEB

Satellite information

Favourite Embed

Satellite Type and Status

DEBRISIN ORBIT

Key statistics

Satellite SL-16 DEB at a glance.

Uptime

10534

Days in orbit

Revolutions

≈ 13.8

Per day

Orbit

LEO

Low Earth Orbit

Inclination

71.0

Latest

Satellite identification and parameters

Extended collection of information and parameters for SL-16 DEB.

Object identification

Identified? True

Debris? True

Object name: SL-16 DEB

International designator: 1996-051C

Object number (NORAD): 24299

Object ID (CCSDS): 24299

Country: COMMONWEALTH OF INDEPENDENT STATES (CIS)

Current information (Y/N): Y

RCS size: SMALL

Orbital parameters

Period: 104.67 minutes

Inclination: 71.0371 deg

SMA: 7357.139 km

Apoapsis: 1117.907 km

Periapsis: 840.101 km

RAAN: 32.6326 deg

Eccentricy: 0.01888

Argument of periapsis: 148.6803 deg

Mean anomaly: 212.5711 deg

Mean motion: 13.75749413 rev/day

Mean motion (dot): 0.00000101 rev/day2

B* drag term: 0.00012953 1/REarth

Two-line elements (TLE)

Creation date: July 7, 2025, 10:26 p.m.

Reference frame: TEME

Reference center: EARTH

Epoch: July 7, 2025, 9:02 p.m. UTC

TLE line 0: 0 SL-16 DEB

TLE line 1: 1 24299U 96051C 25188.87645293 .00000101 00000-0 12953-3 0 9990

TLE line 2: 2 24299 71.0371 32.6326 0188800 148.6803 212.5711 13.75749413447620

Live tracking on map

Real-time ground track for satellite SL-16 DEB.

In-orbit conjunctions

There are no conjunctions computed for SL-16 DEB, at the moment. Check back to stay up to date, as we update our databases every day.

Go to all conjunctions

Associated space launch

Second generation ELING satellite

SL-16 DEB was lifted into orbit during the mission ‘Zenit-2 | Tselina-2 18’, on board a Zenit-2 space rocket.

The launch took place on Sept. 4, 1996, 9:01 a.m. from 45/1.

For more information about the launch, click the button.

Launch to space Zenit-2 | Tselina-2 18
Zenit-2 | Tselina-2 18

Agency: N/A

Status: Launch Successful

Launch date: Sept. 4, 1996, 9:01 a.m. UTC

Rocket: Zenit-2

Launch pad: 45/1

Location: Baikonur Cosmodrome, Republic of Kazakhstan

...

Latest news about this satellite

There are no fresh news available about this satellite. Check back as we update our databases every day.


Newsletter sign-up

Weekly statistics, charts and insights to help you stay on top of the space industry.